Temp
-9 -9 -9 -9 -9 -8 -8 -7 -8 -7 -6 -7 -7 -7 -7 -7 -6 -7 -6 -6 -6 -7 -7 -8 -8 -9 -9 -9 -8 -8 -8 -9 -9 -9 -9 -10 -10 -10 -10 -9 -9 -9 -10 -10 -10 -9 -9 -9 -9
-9 -9 -9 -9 -9 -7 -7 -7 -7 -7 -7 -7 -7 -7 -7 -7 -6 -6 -6 -6 -6 -6 -6 -7 -7 -8 -9 -9 -9 -9 -9 -9 -9 -9 -9 -9 -9 -10 -9 -9 -9 -9 -9 -9 -9 -9 -9 -9 -9
-9 -9 -9 -9 -8 -7 -7 -8 -7 -7 -7 -7 -7 -7 -7 -6 -6 -6 -6 -6 -6 -6 -7 -7 -7 -7 -7 -8 -8 -9 -9 -9 -9 -9 -9 -9 -9 -9 -9 -9 -9 -9 -9 -10 -9 -9 -9 -9 -9
-8 -9 -9 -9 -8 -7 -7 -8 -7 -7 -7 -7 -7 -7 -7 -7 -6 -6 -6 -6 -6 -7 -7 -7 -7 -7 -7 -7 -7 -8 -8 -9 -9 -9 -9 -9 -9 -9 -9 -9 -9 -9 -10 -9 -9 -9 -9 -9 -9
-9 -9 -9 -9 -8 -7 -7 -8 -7 -8 -7 -7 -7 -7 -7 -7 -7 -7 -7 -6 -7 -7 -7 -7 -7 -7 -7 -7 -7 -7 -7 -7 -8 -8 -9 -9 -9 -9 -9 -9 -9 -9 -9 -10 -10 -10 -10 -9 -9
-9 -9 -9 -9 -8 -7 -8 -8 -7 -8 -8 -7 -8 -8 -7 -7 -7 -7 -7 -7 -7 -7 -7 -7 -7 -7 -7 -7 -7 -7 -7 -7 -8 -8 -8 -8 -8 -9 -9 -9 -9 -9 -9 -10 -10 -10 -10 -10 -10
-9 -9 -9 -9 -8 -8 -8 -8 -7 -8 -8 -8 -8 -8 -7 -7 -7 -7 -7 -7 -7 -7 -7 -7 -7 -7 -7 -7 -8 -8 -8 -8 -8 -7 -8 -8 -8 -9 -9 -9 -10 -10 -10 -10 -10 -10 -10 -10 -10
-9 -9 -9 -9 -8 -8 -9 -8 -8 -8 -8 -8 -8 -9 -8 -8 -8 -7 -7 -7 -7 -7 -7 -7 -7 -7 -8 -8 -8 -8 -8 -8 -8 -8 -8 -8 -8 -9 -9 -9 -9 -9 -10 -10 -10 -10 -11 -11 -11
-9 -9 -9 -9 -8 -8 -9 -8 -8 -8 -8 -8 -8 -8 -8 -8 -8 -8 -8 -7 -7 -7 -7 -8 -8 -8 -8 -8 -8 -8 -8 -8 -8 -8 -8 -8 -8 -8 -9 -9 -9 -9 -9 -10 -10 -10 -11 -11 -11
-9 -9 -9 -9 -8 -7 -8 -8 -8 -8 -8 -8 -8 -8 -8 -8 -8 -8 -8 -8 -8 -8 -8 -8 -8 -8 -8 -8 -8 -8 -8 -8 -8 -9 -8 -8 -8 -8 -8 -8 -9 -9 -9 -10 -10 -10 -11 -11 -11
-9 -9 -9 -9 -8 -7 -8 -9 -8 -8 -8 -9 -9 -9 -8 -8 -8 -8 -8 -8 -8 -8 -8 -8 -8 -8 -8 -8 -9 -9 -9 -9 -9 -9 -9 -8 -9 -9 -9 -9 -9 -9 -9 -9 -10 -10 -11 -11 -11
-9 -9 -9 -9 -8 -8 -9 -8 -9 -8 -8 -9 -9 -9 -9 -9 -8 -8 -8 -8 -8 -8 -8 -8 -8 -8 -8 -9 -9 -9 -9 -9 -9 -9 -9 -9 -9 -9 -9 -9 -9 -9 -9 -9 -10 -10 -11 -11 -12
-9 -9 -8 -9 -9 -9 -9 -9 -9 -9 -9 -9 -9 -9 -9 -9 -9 -9 -9 -9 -8 -8 -8 -9 -9 -9 -9 -9 -9 -9 -9 -9 -9 -9 -9 -9 -9 -9 -9 -9 -9 -9 -9 -9 -10 -10 -11 -11 -12
-10 -9 -9 -9 -9 -9 -9 -9 -9 -10 -10 -10 -9 -10 -9 -9 -9 -9 -9 -9 -9 -9 -9 -9 -9 -9 -9 -9 -9 -9 -9 -9 -9 -9 -9 -9 -9 -9 -10 -10 -10 -10 -10 -10 -10 -10 -11 -11 -12
-10 -9 -9 -9 -9 -9 -9 -9 -10 -10 -10 -10 -10 -10 -10 -10 -10 -9 -9 -10 -10 -9 -10 -10 -10 -9 -9 -9 -9 -9 -9 -10 -10 -10 -9 -9 -10 -10 -10 -10 -10 -10 -10 -10 -10 -11 -11 -11 -12
-10 -10 -9 -10 -9 -9 -10 -10 -10 -10 -10 -11 -11 -10 -10 -10 -10 -9 -9 -10 -10 -10 -10 -10 -10 -10 -10 -10 -10 -10 -10 -10 -10 -10 -10 -10 -10 -10 -10 -10 -10 -10 -11 -11 -11 -11 -11 -12 -12
-10 -9 -9 -10 -10 -10 -10 -10 -10 -10 -10 -11 -11 -11 -10 -10 -10 -9 -10 -10 -10 -10 -10 -10 -10 -10 -10 -10 -10 -10 -10 -10 -10 -10 -10 -11 -11 -11 -11 -11 -11 -11 -11 -12 -12 -12 -12 -13 -13
-11 -10 -10 -10 -10 -10 -10 -10 -10 -10 -10 -11 -11 -11 -11 -11 -10 -10 -10 -10 -11 -10 -10 -10 -10 -10 -10 -10 -11 -11 -11 -11 -11 -11 -11 -11 -11 -11 -11 -11 -11 -12 -12 -12 -13 -13 -13 -13 -13
-11 -11 -10 -10 -10 -10 -10 -11 -10 -10 -10 -11 -11 -11 -11 -11 -10 -10 -11 -11 -11 -10 -10 -10 -11 -11 -11 -11 -11 -11 -11 -11 -11 -11 -11 -11 -12 -12 -12 -12 -12 -12 -12 -12 -13 -13 -14 -14 -14
-12 -12 -12 -11 -11 -11 -11 -10 -11 -11 -11 -11 -11 -11 -11 -11 -11 -11 -11 -11 -11 -11 -11 -11 -11 -11 -11 -11 -11 -11 -12 -12 -12 -12 -12 -12 -12 -12 -12 -12 -12 -13 -13 -13 -13 -14 -14 -14 -15
-13 -13 -12 -12 -11 -11 -11 -11 -11 -11 -11 -11 -11 -11 -11 -11 -11 -11 -11 -11 -11 -11 -11 -11 -11 -12 -12 -12 -12 -12 -12 -12 -12 -12 -13 -13 -13 -13 -12 -13 -12 -13 -13 -13 -14 -14 -14 -15 -16
-14 -13 -13 -12 -12 -12 -11 -10 -11 -11 -11 -11 -11 -11 -11 -11 -12 -12 -12 -12 -12 -11 -12 -12 -12 -12 -12 -12 -12 -13 -13 -13 -13 -13 -13 -13 -13 -13 -13 -13 -13 -13 -14 -14 -14 -15 -15 -16 -17
-14 -14 -13 -13 -12 -12 -11 -11 -11 -11 -11 -11 -11 -11 -12 -11 -12 -12 -12 -12 -12 -12 -12 -12 -13 -13 -13 -13 -13 -13 -13 -13 -13 -13 -13 -13 -13 -13 -13 -13 -14 -14 -15 -15 -16 -16 -17 -17 -18
-14 -14 -14 -13 -13 -12 -12 -12 -11 -11 -11 -11 -11 -11 -12 -12 -12 -12 -12 -12 -12 -12 -13 -13 -14 -13 -13 -13 -13 -14 -14 -14 -14 -14 -13 -14 -14 -14 -14 -14 -14 -15 -16 -16 -17 -18 -18 -18 -18
-14 -14 -14 -14 -13 -12 -12 -12 -11 -11 -11 -11 -11 -12 -12 -12 -12 -13 -12 -12 -13 -13 -13 -14 -14 -14 -14 -14 -14 -14 -14 -14 -14 -14 -14 -14 -14 -14 -14 -15 -15 -16 -17 -18 -18 -19 -19 -19 -19
-15 -15 -15 -14 -13 -13 -12 -12 -12 -12 -12 -12 -12 -13 -13 -13 -13 -13 -13 -13 -13 -14 -14 -14 -14 -14 -14 -14 -14 -15 -15 -14 -14 -14 -14 -14 -15 -15 -15 -16 -17 -17 -18 -18 -19 -19 -19 -20 -20
-16 -15 -16 -15 -14 -13 -13 -12 -12 -12 -12 -13 -14 -14 -14 -14 -14 -14 -14 -14 -14 -14 -14 -14 -15 -15 -15 -15 -15 -15 -15 -15 -15 -15 -15 -15 -16 -16 -17 -17 -18 -19 -19 -20 -20 -20 -21 -21 -21
-16 -17 -16 -15 -15 -14 -13 -13 -13 -13 -14 -13 -14 -14 -14 -15 -15 -15 -15 -15 -15 -15 -15 -16 -15 -15 -15 -15 -15 -15 -15 -16 -16 -16 -16 -16 -17 -18 -18 -19 -19 -20 -20 -21 -21 -21 -21 -21 -21
-17 -17 -16 -16 -15 -15 -14 -14 -14 -14 -15 -15 -15 -15 -15 -15 -16 -16 -16 -16 -16 -16 -16 -16 -16 -16 -15 -15 -15 -16 -16 -16 -16 -17 -17 -18 -18 -19 -20 -20 -21 -21 -21 -21 -22 -22 -22 -22 -21
-17 -17 -17 -17 -16 -16 -16 -15 -15 -15 -15 -15 -15 -15 -16 -17 -17 -17 -17 -17 -17 -16 -16 -16 -16 -16 -16 -16 -17 -17 -17 -17 -17 -18 -19 -19 -19 -20 -20 -21 -21 -21 -21 -21 -22 -22 -22 -22 -22
Height
5878 5879 5879 5880 5882 5880 5880 5882 5882 5881 5882 5881 5881 5880 5881 5881 5881 5884 5880 5879 5879 5878 5877 5877 5877 5876 5876 5876 5875 5874 5873 5872 5872 5871 5870 5870 5869 5869 5868 5868 5867 5867 5866 5866 5865 5865 5865 5864 5864
5875 5876 5877 5877 5877 5878 5880 5881 5880 5880 5881 5881 5881 5881 5881 5882 5882 5882 5881 5880 5880 5880 5879 5878 5877 5876 5876 5876 5875 5875 5873 5873 5872 5871 5871 5870 5870 5869 5869 5868 5867 5867 5866 5865 5865 5865 5865 5864 5862
5872 5874 5876 5873 5875 5876 5880 5882 5880 5880 5880 5881 5881 5882 5882 5882 5882 5882 5882 5881 5881 5881 5880 5879 5878 5878 5876 5875 5874 5874 5873 5872 5872 5871 5871 5870 5869 5868 5868 5867 5867 5867 5866 5865 5864 5863 5862 5862 5861
5870 5873 5874 5872 5873 5875 5879 5880 5879 5879 5879 5881 5881 5881 5882 5882 5882 5883 5882 5882 5882 5882 5882 5881 5880 5879 5878 5877 5875 5874 5872 5872 5871 5870 5869 5869 5868 5867 5867 5867 5866 5865 5864 5864 5863 5862 5861 5860 5859
5867 5869 5870 5871 5870 5873 5876 5876 5877 5878 5878 5881 5880 5881 5882 5883 5883 5883 5883 5883 5882 5883 5882 5882 5881 5880 5879 5878 5877 5875 5874 5872 5871 5869 5868 5866 5866 5865 5864 5864 5864 5863 5863 5861 5860 5859 5858 5857 5856
5864 5866 5867 5867 5868 5870 5874 5874 5875 5877 5877 5880 5880 5881 5882 5882 5882 5882 5882 5883 5883 5883 5882 5882 5881 5881 5879 5878 5877 5876 5874 5873 5871 5870 5868 5866 5865 5863 5863 5862 5861 5860 5859 5858 5856 5856 5854 5853 5852
5860 5862 5863 5862 5865 5868 5870 5872 5872 5876 5876 5878 5881 5880 5881 5881 5881 5881 5881 5882 5882 5883 5882 5882 5880 5879 5879 5877 5876 5875 5873 5872 5870 5868 5867 5865 5864 5862 5860 5859 5858 5857 5856 5855 5854 5852 5851 5849 5848
5855 5858 5859 5859 5861 5866 5867 5869 5870 5873 5874 5876 5879 5878 5879 5880 5880 5880 5880 5881 5881 5882 5881 5880 5880 5879 5877 5876 5875 5873 5872 5871 5869 5867 5865 5864 5862 5860 5858 5856 5855 5853 5852 5850 5849 5847 5846 5845 5843
5850 5854 5856 5856 5855 5862 5865 5866 5867 5871 5872 5873 5875 5877 5877 5877 5877 5878 5879 5879 5880 5880 5880 5879 5878 5877 5875 5874 5873 5871 5870 5868 5867 5865 5863 5861 5860 5858 5856 5854 5852 5850 5848 5846 5844 5843 5841 5839 5838
5845 5849 5851 5851 5852 5859 5861 5862 5864 5869 5870 5871 5872 5874 5873 5874 5875 5875 5876 5877 5878 5878 5878 5877 5875 5874 5873 5871 5870 5869 5867 5865 5864 5862 5860 5858 5856 5854 5852 5850 5848 5846 5844 5842 5840 5838 5835 5833 5832
5840 5844 5844 5848 5849 5853 5857 5858 5860 5863 5867 5869 5870 5870 5869 5870 5871 5871 5873 5873 5874 5874 5874 5873 5873 5872 5870 5869 5867 5865 5863 5862 5860 5858 5857 5855 5853 5850 5848 5845 5843 5840 5838 5836 5834 5832 5829 5827 5825
5836 5838 5839 5844 5844 5849 5851 5854 5858 5857 5862 5865 5866 5866 5866 5866 5867 5867 5869 5869 5870 5870 5871 5870 5868 5867 5867 5864 5862 5861 5859 5858 5856 5853 5851 5850 5847 5845 5842 5840 5838 5835 5833 5830 5828 5825 5822 5819 5817
5829 5831 5834 5841 5840 5843 5846 5849 5851 5855 5856 5858 5860 5861 5861 5862 5862 5863 5864 5863 5865 5865 5865 5864 5865 5861 5860 5859 5858 5856 5854 5852 5850 5848 5847 5845 5843 5840 5836 5834 5831 5829 5825 5823 5820 5817 5814 5812 5810
5823 5824 5829 5836 5835 5837 5841 5843 5847 5850 5849 5852 5856 5855 5856 5857 5857 5857 5858 5859 5860 5860 5859 5857 5857 5858 5855 5853 5851 5850 5848 5846 5843 5841 5840 5838 5836 5833 5831 5827 5824 5821 5818 5815 5812 5809 5806 5804 5801
5815 5817 5822 5828 5830 5832 5836 5838 5844 5842 5844 5848 5850 5850 5851 5852 5851 5851 5852 5853 5854 5854 5852 5850 5849 5848 5849 5847 5845 5843 5840 5839 5837 5834 5832 5831 5829 5826 5823 5820 5817 5813 5810 5807 5804 5801 5798 5795 5792
5806 5810 5814 5820 5823 5827 5830 5835 5836 5838 5840 5843 5843 5846 5846 5846 5845 5844 5847 5849 5848 5846 5843 5844 5842 5840 5839 5838 5836 5834 5833 5831 5829 5827 5824 5822 5819 5816 5815 5812 5809 5805 5801 5797 5795 5792 5789 5786 5783
5796 5802 5807 5813 5816 5819 5823 5829 5828 5831 5834 5836 5837 5838 5840 5839 5839 5836 5840 5842 5841 5840 5836 5836 5834 5833 5831 5828 5826 5826 5823 5822 5820 5819 5816 5813 5809 5807 5805 5802 5799 5795 5792 5788 5785 5782 5779 5775 5772
5789 5793 5797 5803 5809 5812 5817 5821 5821 5825 5828 5830 5831 5831 5832 5834 5831 5832 5834 5832 5831 5830 5830 5828 5827 5825 5822 5820 5818 5816 5814 5812 5811 5809 5807 5804 5801 5798 5794 5791 5788 5784 5781 5778 5774 5771 5767 5764 5760
5779 5784 5788 5794 5799 5804 5808 5812 5813 5817 5821 5824 5824 5825 5825 5824 5823 5826 5826 5823 5821 5822 5821 5820 5818 5816 5814 5812 5810 5807 5805 5802 5800 5797 5795 5794 5791 5788 5783 5779 5776 5773 5770 5767 5763 5759 5756 5752 5748
5771 5776 5780 5785 5791 5795 5798 5806 5807 5809 5813 5816 5817 5817 5816 5815 5818 5818 5817 5815 5814 5812 5811 5810 5808 5806 5805 5803 5800 5798 5795 5792 5790 5788 5785 5783 5779 5776 5772 5768 5765 5761 5758 5754 5751 5747 5744 5740 5736
5764 5768 5772 5775 5781 5787 5790 5796 5799 5802 5804 5806 5806 5807 5808 5808 5809 5809 5807 5806 5805 5803 5801 5799 5797 5795 5793 5791 5789 5787 5784 5782 5780 5778 5775 5771 5768 5764 5761 5757 5753 5749 5745 5741 5738 5734 5731 5728 5724
5755 5760 5764 5766 5772 5777 5781 5783 5792 5794 5794 5796 5797 5799 5798 5799 5799 5799 5797 5796 5795 5793 5791 5789 5786 5784 5782 5780 5777 5775 5773 5770 5768 5766 5763 5759 5756 5753 5750 5746 5742 5738 5734 5729 5725 5722 5718 5714 5711
5748 5752 5756 5758 5762 5766 5773 5774 5782 5784 5785 5786 5788 5788 5788 5789 5789 5788 5787 5784 5782 5780 5779 5776 5774 5772 5770 5768 5766 5763 5760 5758 5756 5754 5751 5747 5744 5741 5738 5735 5730 5726 5722 5717 5713 5709 5705 5702 5699
5738 5742 5746 5749 5753 5757 5764 5766 5767 5774 5774 5777 5779 5778 5779 5779 5778 5777 5774 5771 5770 5768 5765 5763 5762 5761 5759 5757 5754 5752 5749 5747 5745 5742 5739 5736 5732 5729 5726 5721 5718 5713 5709 5705 5701 5697 5694 5690 5687
5730 5734 5737 5741 5744 5750 5753 5756 5758 5759 5764 5767 5770 5768 5767 5767 5766 5764 5762 5760 5758 5755 5752 5751 5750 5749 5747 5745 5742 5740 5738 5735 5733 5730 5727 5724 5721 5718 5713 5709 5705 5700 5697 5693 5689 5685 5682 5679 5676
5720 5724 5727 5729 5735 5740 5742 5747 5751 5751 5748 5752 5755 5756 5756 5754 5751 5751 5749 5747 5745 5743 5741 5741 5739 5737 5735 5733 5730 5728 5725 5723 5720 5717 5714 5712 5708 5705 5700 5696 5693 5689 5685 5682 5678 5674 5670 5667 5664
5711 5713 5720 5722 5725 5728 5732 5738 5743 5741 5740 5740 5741 5741 5742 5741 5740 5738 5736 5735 5734 5732 5731 5729 5728 5726 5723 5721 5718 5716 5714 5711 5708 5705 5702 5699 5695 5691 5687 5684 5680 5677 5673 5670 5666 5663 5660 5656 5653
5699 5705 5709 5711 5715 5719 5723 5726 5729 5729 5728 5729 5729 5728 5728 5728 5728 5726 5724 5723 5722 5721 5720 5718 5716 5714 5711 5708 5707 5705 5702 5699 5696 5693 5690 5686 5682 5679 5675 5672 5669 5665 5661 5658 5655 5651 5648 5644 5641
5691 5695 5699 5702 5706 5707 5711 5714 5716 5717 5717 5716 5716 5717 5716 5716 5716 5715 5714 5713 5712 5709 5707 5706 5704 5702 5699 5697 5695 5693 5690 5687 5684 5681 5678 5674 5670 5667 5663 5660 5657 5653 5649 5646 5643 5640 5636 5632 5629
5677 5683 5686 5687 5693 5697 5700 5704 5702 5704 5704 5703 5701 5701 5701 5701 5701 5704 5704 5702 5700 5698 5697 5694 5692 5690 5688 5686 5683 5680 5677 5675 5671 5668 5664 5661 5657 5654 5651 5649 5645 5641 5638 5633 5630 5627 5623 5620 5616
Wind_Speed
16 16 17 15 16 14 10 7 5 6 6 9 10 12 13 14 14 13 17 17 17 16 16 14 12 11 11 11 11 11 12 12 13 14 14 14 13 11 10 10 10 8 7 7 5 6 6 7 10
19 19 17 16 18 16 12 8 10 9 8 10 13 11 13 13 15 14 16 16 17 18 18 17 16 14 12 10 10 11 11 11 12 12 12 13 12 11 11 11 10 10 9 8 8 10 11 12 12
20 19 18 18 19 16 9 8 11 12 11 10 12 11 11 12 12 13 15 15 16 16 17 17 17 17 15 13 12 10 10 10 10 10 11 11 11 11 11 11 12 11 10 11 12 11 12 14 16
19 18 18 20 21 16 9 11 13 13 12 12 10 10 10 10 10 10 12 12 13 13 15 16 16 17 17 16 14 12 9 8 8 9 10 11 12 12 12 11 11 12 13 14 15 15 15 15 17
22 21 21 21 23 17 13 16 17 15 14 13 11 10 8 7 7 7 8 9 9 11 12 13 14 15 16 17 18 17 15 13 11 10 9 9 9 12 14 14 14 14 14 14 15 17 18 19 20
25 23 22 23 23 22 16 18 19 18 17 15 12 9 8 6 4 4 4 5 6 7 8 9 10 11 13 14 15 16 16 16 16 15 13 10 10 11 12 14 17 18 19 18 18 18 19 20 22
27 25 25 28 24 20 20 20 22 19 18 16 14 10 9 7 5 3 1 1 2 3 4 6 8 9 11 13 14 14 15 16 16 16 17 17 15 13 13 14 15 17 20 21 22 23 23 23 24
29 28 27 28 26 19 22 22 23 21 20 18 14 13 10 9 7 6 5 4 4 5 5 6 7 9 11 13 14 15 16 17 17 17 18 19 18 17 17 17 18 18 20 22 22 23 25 25 27
33 30 28 29 28 22 20 23 24 23 21 20 16 15 13 13 12 10 8 8 8 8 9 10 10 11 12 14 15 16 17 18 19 19 20 22 22 22 22 21 21 23 23 23 24 26 27 29 29
37 33 31 32 29 21 21 24 25 24 23 20 18 16 17 18 16 15 13 13 12 13 13 13 15 15 16 18 19 19 19 20 21 21 22 23 24 26 26 26 25 26 27 27 28 29 30 31 32
41 35 35 33 30 25 22 25 26 28 24 21 19 19 21 20 20 20 19 18 16 17 19 20 18 19 19 21 22 23 23 22 23 24 25 26 28 28 28 29 30 31 32 32 33 33 32 32 34
41 40 37 34 33 27 27 29 27 29 27 23 22 22 22 23 23 23 23 23 22 22 23 23 24 24 24 25 26 27 27 27 27 27 28 29 31 32 32 32 33 35 35 35 36 35 36 36 36
43 43 40 34 36 32 30 30 29 28 29 26 24 24 25 24 26 26 26 27 27 27 28 28 26 29 30 29 29 31 31 31 30 30 31 32 33 35 35 36 37 38 39 39 38 38 39 38 38
45 45 42 36 37 35 33 32 30 27 29 29 26 26 27 27 28 30 29 29 29 29 31 32 32 31 33 33 33 33 34 34 35 34 34 35 37 38 39 39 40 41 42 42 42 41 41 41 41
46 47 44 40 38 37 34 34 28 32 33 29 28 29 29 30 30 32 31 30 30 30 31 34 35 36 37 37 37 36 37 37 36 37 38 39 38 41 42 42 43 43 43 44 43 44 43 43 43
47 49 47 42 42 38 37 31 32 32 32 29 30 29 30 30 31 35 33 30 28 31 37 36 36 39 38 38 39 39 39 38 38 38 40 43 43 44 43 44 45 46 45 45 45 45 45 46 47
48 47 46 45 44 41 38 33 35 33 31 29 29 28 29 31 33 38 33 31 30 32 38 38 39 39 41 41 40 40 39 39 39 41 43 43 45 46 45 47 47 47 46 44 45 45 47 46 48
44 46 48 48 46 44 39 36 37 34 31 29 27 29 28 29 34 33 31 34 35 37 37 38 40 40 42 42 41 40 40 43 46 47 47 46 45 45 47 48 49 49 48 48 46 47 48 48 49
46 46 48 50 49 45 43 40 40 37 34 30 31 31 31 33 35 33 35 38 42 42 43 42 42 42 43 42 42 43 46 50 50 48 48 49 48 47 47 49 50 51 50 49 48 49 48 49 51
47 46 47 50 49 47 45 41 40 39 36 35 34 35 37 39 36 36 42 46 47 48 48 49 50 49 46 45 46 50 53 50 48 49 50 50 48 48 50 51 51 50 51 50 51 51 50 51 51
44 44 44 48 49 47 47 44 43 41 39 39 39 40 40 39 41 43 42 42 43 47 50 51 51 50 49 51 54 54 52 49 50 50 48 47 49 49 50 52 52 53 53 53 52 52 52 52 51
43 43 44 47 46 47 47 50 44 41 42 42 42 44 43 45 44 46 48 49 52 55 56 56 55 55 55 54 52 51 51 51 48 46 46 48 50 50 52 52 52 52 53 52 53 52 52 51 50
44 43 44 45 46 47 47 49 45 44 43 43 46 47 47 50 49 51 53 57 60 59 58 57 56 54 51 51 50 50 48 46 47 47 48 50 51 51 51 52 52 52 51 52 51 51 51 50 50
45 44 44 45 46 48 44 45 51 47 49 51 51 52 50 49 51 54 59 61 61 59 57 55 53 51 51 49 46 46 46 46 46 48 50 51 52 52 52 53 52 52 51 51 51 51 51 52 53
46 42 43 44 44 46 46 47 52 52 48 49 52 52 52 55 59 60 61 62 59 54 52 50 49 47 47 46 44 44 45 47 49 50 51 52 52 53 53 53 53 52 53 53 53 54 55 55 55
44 45 46 48 49 49 52 52 50 47 51 54 53 54 58 55 55 57 55 51 50 49 49 49 47 45 44 44 45 46 48 49 50 51 51 51 51 51 52 53 53 53 53 53 52 52 50 49 48
45 46 45 47 48 51 53 52 50 51 57 56 56 56 55 54 53 49 46 47 46 45 45 44 44 44 45 47 48 49 50 50 50 50 51 51 51 51 51 53 52 51 50 49 49 49 47 47 48
49 46 47 52 52 54 55 57 59 60 60 60 57 55 55 54 52 50 50 49 46 43 42 43 44 46 47 48 49 49 50 49 50 50 51 51 51 51 52 51 51 51 52 53 52 52 50 50 51
52 51 52 56 59 61 60 59 58 58 58 57 58 56 54 50 47 45 46 45 43 44 44 44 45 46 49 50 49 49 49 49 51 52 51 51 51 50 50 50 52 53 52 52 52 54 55 55 54
52 54 59 63 60 57 55 54 56 56 57 57 58 55 52 50 48 43 38 39 42 45 44 47 48 47 47 48 48 49 50 52 52 50 50 50 50 51 50 51 52 52 52 52 52 50 49 49 49
Wind_Direction
215 227 233 240 248 237 235 223 200 193 155 129 121 106 95 89 80 78 72 67 61 59 62 61 60 55 49 39 33 33 34 34 29 22 19 22 21 17 13 9 5 2 339 304 295 288 283 280 274
224 233 240 239 240 236 228 225 204 181 171 143 126 115 104 96 86 80 71 62 60 57 57 58 58 61 61 49 36 29 26 21 17 18 13 11 10 6 3 355 349 350 349 345 324 296 301 299 299
225 230 233 237 239 249 243 228 207 183 177 155 130 126 107 94 83 75 68 60 57 55 55 55 53 49 54 63 61 46 30 21 11 0 355 355 355 355 355 349 341 336 328 321 318 313 309 297 302
222 223 230 241 249 252 254 212 211 193 185 167 150 137 118 103 85 74 68 61 54 51 49 43 42 41 40 40 46 50 49 38 16 4 349 343 339 336 335 334 333 329 329 323 318 310 300 296 291
226 229 236 244 254 255 250 232 213 197 199 176 175 153 135 116 98 77 63 57 52 50 48 39 36 32 28 27 25 24 25 23 18 11 353 338 329 325 323 318 315 312 311 312 314 314 313 310 302
232 235 239 249 251 252 248 238 213 204 210 192 187 173 162 149 126 92 64 47 44 44 41 34 29 23 18 15 13 10 8 8 4 360 350 338 329 318 310 311 313 310 306 303 301 302 304 305 305
232 236 239 243 246 249 249 237 229 211 219 211 182 212 192 190 179 182 187 354 2 2 14 13 8 5 2 0 359 357 356 355 352 349 345 337 333 321 311 305 298 300 304 307 307 303 298 293 292
234 234 239 242 243 237 242 243 236 223 223 217 197 216 214 220 223 221 235 255 281 295 312 327 333 337 344 345 342 342 343 342 339 335 332 331 330 326 318 314 309 302 297 294 296 298 301 301 299
235 234 235 241 241 234 234 243 239 232 227 228 219 218 234 237 237 243 252 263 272 273 289 300 304 313 321 324 324 328 329 329 328 326 324 323 325 326 324 322 317 313 307 301 295 292 291 292 294
236 231 231 235 245 238 231 246 246 242 238 234 230 229 234 240 244 248 253 262 268 276 282 286 296 301 305 308 314 316 316 319 317 316 315 315 316 318 320 319 318 315 313 311 307 301 297 294 292
236 233 232 235 238 239 237 242 246 244 240 243 241 243 245 247 247 251 255 257 263 275 284 287 289 294 296 297 299 303 305 306 308 308 309 309 310 312 312 313 313 312 311 311 310 307 304 302 301
238 236 231 231 239 238 242 244 241 247 243 243 247 250 255 258 259 259 262 268 270 275 275 281 287 286 289 293 292 296 298 299 301 304 306 308 307 307 307 306 308 307 307 306 305 304 305 305 304
236 236 235 229 238 237 237 242 243 242 246 243 247 250 254 261 267 271 273 275 278 280 282 282 281 285 287 288 291 293 295 296 296 299 301 303 301 302 302 303 303 303 303 302 304 302 302 301 300
239 237 237 232 236 238 240 243 245 245 246 245 244 254 260 263 266 270 272 276 277 281 285 286 285 282 284 290 292 293 293 294 294 293 297 300 300 299 298 299 299 299 300 301 300 299 300 299 300
244 240 236 233 234 239 242 243 243 240 245 251 256 255 259 262 266 269 271 276 283 285 286 284 286 287 289 292 293 293 293 292 291 292 294 296 297 296 295 296 297 296 298 297 297 296 296 295 296
244 242 237 234 233 237 243 241 240 241 244 248 253 255 261 266 268 269 274 279 282 287 284 285 288 289 292 292 292 290 289 289 290 290 290 294 296 293 292 293 294 295 296 295 294 292 292 293 292
241 242 240 235 235 237 241 239 241 243 246 248 252 259 261 264 268 269 275 281 281 278 281 287 289 291 291 290 290 290 290 289 289 288 290 292 292 292 294 295 294 294 293 292 291 290 289 292 291
237 239 238 235 235 239 242 241 244 245 246 251 259 261 262 264 267 276 284 284 284 284 290 292 291 291 289 289 289 288 289 290 293 288 290 291 292 293 294 293 292 292 291 292 289 289 289 288 287
234 233 235 235 234 238 240 241 246 245 249 253 256 261 265 266 270 281 284 286 287 292 293 292 291 289 288 287 287 286 289 291 291 289 289 291 292 290 290 290 290 291 291 290 287 288 284 283 284
235 232 233 234 235 237 241 242 248 252 255 258 262 267 267 271 278 283 288 288 288 291 292 291 289 287 285 284 283 285 288 288 287 288 290 290 289 290 290 290 290 290 290 289 289 289 287 287 287
235 233 232 235 236 238 241 243 247 253 259 262 265 269 272 272 274 275 280 287 290 290 291 292 288 286 285 285 286 288 286 287 288 289 288 288 288 288 288 289 289 290 291 290 290 290 290 289 288
238 235 234 237 238 238 242 246 246 251 257 262 267 270 270 273 271 273 278 286 292 291 290 289 286 284 285 286 287 287 287 289 288 288 288 288 287 288 288 289 291 291 291 290 292 291 291 290 290
235 237 238 239 242 242 244 250 248 253 256 261 266 268 271 273 273 275 281 287 290 288 288 286 283 282 283 284 284 286 286 286 286 288 289 288 287 288 289 290 291 291 291 291 291 290 290 290 291
237 236 237 240 243 246 247 252 255 254 258 262 266 268 269 271 275 278 280 284 286 286 285 283 282 282 283 283 283 282 282 284 286 287 286 286 287 289 291 291 291 292 291 291 292 291 291 291 291
237 238 239 240 242 248 248 250 256 260 260 265 267 269 273 276 278 278 281 283 282 282 282 284 284 284 284 282 281 282 283 284 284 283 284 285 287 289 291 293 292 292 292 290 291 291 290 292 293
237 238 242 242 243 250 255 256 255 260 270 270 270 272 277 278 280 282 283 281 281 281 282 283 283 283 281 282 282 283 282 283 283 284 285 287 290 292 292 293 291 291 290 291 291 291 293 293 292
238 239 242 243 244 245 248 252 257 261 262 268 275 276 277 280 280 279 281 283 282 280 279 280 280 280 281 281 282 282 283 283 284 286 288 291 291 291 289 289 288 289 290 292 293 294 293 292 292
239 240 242 246 249 253 257 259 260 260 265 270 274 277 277 279 279 280 282 281 279 279 277 275 276 278 278 278 279 281 282 283 286 288 289 290 289 288 286 286 287 289 290 290 291 291 288 288 288
240 242 244 250 253 255 256 257 260 262 266 270 271 274 277 275 278 280 278 277 275 274 273 275 276 277 278 280 281 282 285 287 288 289 289 288 285 284 283 284 285 285 286 286 286 286 287 290 291
244 244 245 248 251 257 261 261 264 266 269 271 275 279 280 284 284 280 274 272 270 271 275 276 278 278 278 281 284 286 287 288 288 288 287 285 283 283 283 284 285 285 287 289 289 288 289 289 288